User: anonymous   Login
Location: Ca�n Batista
(41.4099°N, 1.7752°E)
Time: 15:55:15
(UTC+00:00)
Language:

Cosmos 2322 - Orbit

View from above orbital plane
View from above orbital plane
View from above satellite
View from above satellite

Ground track
Ground track

The orbit data is extracted from the following two-line orbital elements,

1 23704U 95058A   21132.17281475 -.00000252  00000-0 -10853-3 0  9998
2 23704  70.9855 296.9250 0006751  98.1231 262.0656 14.13437471317180
Epoch (UTC): 12 May 2021 04:08:51
Eccentricity: 0.0006751
inclination: 70.9855°
perigee height: 843 km
apogee height: 852 km
right ascension of ascending node: 296.9250°
argument of perigee: 98.1231°
revolutions per day: 14.13437471
mean anomaly at epoch: 262.0656°
orbit number at epoch: 31718

The dashed part of the orbit path shows where the satellite is in the earth's shadow,  

DLR